| time (UTC) | temp F | wind direction | speed knots | gust knots | rain 1hr in | rain 24hr in | rain mn in | humidity % | barometer mb |
| 20260507170046 | 60 | 1 | 11.3 | 15.6 | 0.00 | 0.06 | 0.00 | 39 | 1017.0 |
| 20260507164543 | 60 | 1 | 8.7 | 15.6 | 0.00 | 0.13 | 0.00 | 40 | 1017.1 |
| 20260507163041 | 59 | 1 | 7.0 | 13.0 | 0.00 | 0.13 | 0.00 | 41 | 1017.0 |
| 20260507161541 | 59 | 1 | 6.1 | 13.9 | 0.00 | 0.13 | 0.00 | 44 | 1017.3 |
| 20260507160042 | 57 | 1 | 7.8 | 12.2 | 0.00 | 0.13 | 0.00 | 42 | 1017.5 |
| 20260507154548 | 55 | 1 | 7.0 | 13.0 | 0.00 | 0.20 | 0.00 | 42 | 1017.5 |
| 20260507153048 | 54 | 1 | 7.8 | 14.8 | 0.00 | 0.20 | 0.00 | 45 | 1017.6 |
| 20260507151543 | 52 | 1 | 7.8 | 14.8 | 0.00 | 0.20 | 0.00 | 46 | 1017.6 |
| 20260507150041 | 51 | 360 | 9.6 | 14.8 | 0.00 | 0.20 | 0.00 | 45 | 1017.6 |
| 20260507144546 | 50 | 1 | 8.7 | 14.8 | 0.00 | 0.20 | 0.00 | 47 | 1017.8 |
| 20260507143045 | 49 | 1 | 7.0 | 13.0 | 0.00 | 0.20 | 0.00 | 47 | 1017.8 |
| 20260507141541 | 47 | 1 | 9.6 | 15.6 | 0.00 | 0.20 | 0.00 | 49 | 1017.4 |
| 20260507140052 | 46 | 360 | 7.8 | 15.6 | 0.00 | 0.20 | 0.00 | 51 | 1017.5 |
| 20260507134551 | 45 | 1 | 9.6 | 14.8 | 0.00 | 0.20 | 0.00 | 50 | 1017.6 |
| 20260507133055 | 44 | 1 | 11.3 | 14.8 | 0.00 | 0.20 | 0.00 | 50 | 1017.5 |
| 20260507131555 | 42 | 1 | 8.7 | 18.2 | 0.00 | 0.20 | 0.00 | 51 | 1017.3 |
| 20260507130106 | 42 | 1 | 11.3 | 15.6 | 0.00 | 0.20 | 0.00 | 49 | 1017.1 |
| 20260507124548 | 42 | 1 | 10.4 | 14.8 | 0.00 | 0.20 | 0.00 | 48 | 1016.8 |
| 20260507123042 | 41 | 1 | 11.3 | 16.5 | 0.00 | 0.20 | 0.00 | 50 | 1016.6 |
| 20260507121556 | 41 | 1 | 11.3 | 18.2 | 0.00 | 0.20 | 0.00 | 48 | 1016.7 |
| 20260507120045 | 41 | 360 | 11.3 | 16.5 | 0.00 | 0.20 | 0.00 | 48 | 1016.6 |
| 20260507114555 | 40 | 1 | 9.6 | 13.9 | 0.00 | 0.20 | 0.00 | 50 | 1016.5 |
| 20260507113045 | 40 | 1 | 9.6 | 15.6 | 0.00 | 0.20 | 0.00 | 49 | 1016.4 |
| 20260507111543 | 40 | 1 | 11.3 | 15.6 | 0.00 | 0.20 | 0.00 | 50 | 1016.4 |
| 20260507110053 | 39 | 1 | 10.4 | 15.6 | 0.00 | 0.20 | 0.00 | 52 | 1016.3 |
| 20260507104544 | 40 | 1 | 11.3 | 16.5 | 0.00 | 0.20 | 0.00 | 51 | 1016.5 |
| 20260507103047 | 40 | 1 | 9.6 | 15.6 | 0.00 | 0.20 | 0.00 | 51 | 1016.7 |
| 20260507101538 | 39 | 1 | 10.4 | 14.8 | 0.00 | 0.20 | 0.00 | 54 | 1017.0 |
| 20260507100043 | 39 | 1 | 9.6 | 15.6 | 0.00 | 0.20 | 0.00 | 53 | 1017.2 |
| 20260507094546 | 39 | 1 | 11.3 | 16.5 | 0.00 | 0.20 | 0.00 | 54 | 1017.0 |
| 20260507093049 | 39 | 1 | 10.4 | 15.6 | 0.00 | 0.20 | 0.00 | 55 | 1017.2 |
| 20260507091544 | 38 | 1 | 10.4 | 16.5 | 0.00 | 0.20 | 0.00 | 57 | 1017.0 |
| 20260507090040 | 38 | 1 | 10.4 | 18.2 | 0.00 | 0.20 | 0.00 | 57 | 1017.1 |
| 20260507084545 | 38 | 1 | 11.3 | 16.5 | 0.00 | 0.20 | 0.00 | 59 | 1017.0 |
| 20260507083044 | 38 | 360 | 8.7 | 16.5 | 0.00 | 0.20 | 0.00 | 60 | 1017.0 |
| 20260507081548 | 38 | 1 | 10.4 | 16.5 | 0.00 | 0.20 | 0.00 | 61 | 1017.4 |
| 20260507080040 | 37 | 360 | 9.6 | 17.4 | 0.00 | 0.20 | 0.00 | 66 | 1017.4 |
| 20260507074559 | 37 | 360 | 9.6 | 15.6 | 0.00 | 0.20 | 0.00 | 66 | 1017.5 |
| 20260507073045 | 37 | 1 | 10.4 | 15.6 | 0.00 | 0.20 | 0.00 | 68 | 1017.7 |
| 20260507071540 | 37 | 1 | 9.6 | 15.6 | 0.00 | 0.20 | 0.00 | 71 | 1018.0 |
| 20260507070042 | 36 | 360 | 8.7 | 13.0 | 0.00 | 0.20 | 0.00 | 72 | 1017.9 |
| 20260507064542 | 36 | 360 | 7.0 | 13.0 | 0.00 | 0.20 | 0.00 | 73 | 1017.8 |
| 20260507063041 | 35 | 1 | 8.7 | 11.3 | 0.00 | 0.20 | 0.00 | 76 | 1017.9 |
| 20260507061543 | 34 | 1 | 8.7 | 12.2 | 0.00 | 0.20 | 0.00 | 80 | 1018.0 |
| 20260507060045 | 33 | 360 | 7.0 | 11.3 | 0.00 | 0.20 | 0.00 | 82 | 1018.2 |
| 20260507054628 | 33 | 1 | 6.1 | 10.4 | 0.00 | 0.20 | 0.20 | 83 | 1018.1 |
| 20260507053049 | 33 | 1 | 6.1 | 10.4 | 0.00 | 0.20 | 0.20 | 83 | 1018.3 |
| 20260507051544 | 32 | 1 | 7.0 | 8.7 | 0.00 | 0.20 | 0.20 | 84 | 1018.4 |
| 20260507050050 | 33 | 360 | 7.0 | 10.4 | 0.00 | 0.20 | 0.20 | 84 | 1018.5 |
| 20260507044559 | 33 | 1 | 7.8 | 12.2 | 0.00 | 0.20 | 0.20 | 84 | 1018.5 |
| 20260507043046 | 33 | 1 | 8.7 | 13.0 | 0.00 | 0.20 | 0.20 | 84 | 1018.6 |
| 20260507041548 | 33 | 1 | 8.7 | 14.8 | 0.00 | 0.20 | 0.20 | 83 | 1018.6 |
| 20260507040048 | 34 | 360 | 8.7 | 13.9 | 0.00 | 0.20 | 0.20 | 83 | 1018.4 |
| 20260507034556 | 34 | 1 | 8.7 | 11.3 | 0.00 | 0.20 | 0.20 | 83 | 1018.5 |
| 20260507033053 | 33 | 1 | 7.8 | 10.4 | 0.00 | 0.20 | 0.20 | 83 | 1018.5 |
| 20260507031606 | 33 | 1 | 7.8 | 11.3 | 0.00 | 0.20 | 0.20 | 82 | 1018.5 |
| 20260507030052 | 33 | 1 | 8.7 | 11.3 | 0.00 | 0.20 | 0.20 | 81 | 1018.4 |
| 20260507024546 | 33 | 1 | 7.0 | 9.6 | 0.00 | 0.20 | 0.20 | 82 | 1018.3 |
| 20260507023044 | 33 | 1 | 7.0 | 9.6 | 0.00 | 0.20 | 0.20 | 83 | 1018.4 |
| 20260507021547 | 33 | 1 | 7.0 | 9.6 | 0.00 | 0.20 | 0.20 | 83 | 1018.3 |
| 20260507020055 | 34 | 1 | 6.1 | 8.7 | 0.00 | 0.20 | 0.20 | 82 | 1018.5 |
| 20260507014557 | 35 | 1 | 6.1 | 8.7 | 0.00 | 0.20 | 0.20 | 79 | 1018.6 |
| 20260507013044 | 36 | 1 | 7.0 | 10.4 | 0.00 | 0.20 | 0.20 | 76 | 1018.4 |
| 20260507011543 | 37 | 1 | 6.1 | 7.8 | 0.00 | 0.20 | 0.20 | 75 | 1018.5 |
| 20260507010044 | 38 | 1 | 3.5 | 7.0 | 0.00 | 0.20 | 0.20 | 74 | 1018.8 |
| 20260507004542 | 37 | 1 | 4.3 | 7.0 | 0.00 | 0.20 | 0.20 | 72 | 1018.8 |
| 20260507003049 | 38 | 1 | 2.6 | 7.0 | 0.00 | 0.20 | 0.20 | 75 | 1018.9 |
| 20260507001544 | 37 | 1 | 3.5 | 8.7 | 0.00 | 0.20 | 0.20 | 73 | 1018.8 |
| 20260507000043 | 37 | 1 | 5.2 | 8.7 | 0.00 | 0.20 | 0.20 | 74 | 1019.0 |
| 20260506234539 | 37 | 1 | 5.2 | 7.8 | 0.00 | 0.24 | 0.20 | 74 | 1019.0 |
| 20260506233053 | 37 | 1 | 3.5 | 8.7 | 0.00 | 0.24 | 0.20 | 74 | 1019.2 |
| 20260506231544 | 37 | 1 | 2.6 | 7.8 | 0.00 | 0.24 | 0.20 | 75 | 1019.1 |
| 20260506230046 | 38 | 1 | 3.5 | 6.1 | 0.00 | 0.24 | 0.20 | 73 | 1019.2 |
| 20260506224541 | 37 | 1 | 3.5 | 7.8 | 0.00 | 0.28 | 0.20 | 79 | 1019.3 |
| 20260506223043 | 35 | 1 | 3.5 | 5.2 | 0.00 | 0.28 | 0.20 | 78 | 1019.5 |
| 20260506221543 | 36 | 1 | 3.5 | 6.1 | 0.00 | 0.28 | 0.20 | 77 | 1019.5 |
| 20260506220048 | 36 | 1 | 1.7 | 3.5 | 0.00 | 0.28 | 0.20 | 75 | 1019.6 |
| 20260506214542 | 38 | 0 | 0.0 | 1.7 | 0.00 | 0.29 | 0.20 | 73 | 1019.8 |
| 20260506213051 | 38 | 1 | 0.9 | 3.5 | 0.00 | 0.29 | 0.20 | 72 | 1019.9 |
| 20260506211543 | 39 | 1 | 1.7 | 3.5 | 0.00 | 0.29 | 0.20 | 70 | 1020.0 |
| 20260506210039 | 38 | 1 | 0.9 | 3.5 | 0.00 | 0.29 | 0.20 | 71 | 1020.1 |
| 20260506204551 | 41 | 1 | 0.0 | 0.0 | 0.00 | 0.30 | 0.20 | 68 | 1020.4 |
| 20260506203052 | 42 | 0 | 0.9 | 1.7 | 0.00 | 0.30 | 0.20 | 69 | 1020.4 |
| 20260506201553 | 39 | 1 | 1.7 | 3.5 | 0.00 | 0.30 | 0.20 | 77 | 1020.4 |
| 20260506200047 | 38 | 1 | 2.6 | 4.3 | 0.00 | 0.30 | 0.20 | 76 | 1020.4 |
| 20260506194556 | 38 | 1 | 3.5 | 6.1 | 0.00 | 0.31 | 0.20 | 76 | 1020.5 |
| 20260506193041 | 39 | 1 | 4.3 | 7.0 | 0.00 | 0.31 | 0.20 | 76 | 1020.7 |
| 20260506191548 | 37 | 1 | 3.5 | 6.1 | 0.00 | 0.31 | 0.20 | 81 | 1020.7 |
| 20260506190051 | 36 | 1 | 3.5 | 7.0 | 0.01 | 0.31 | 0.20 | 82 | 1020.8 |
| 20260506184541 | 35 | 1 | 4.3 | 7.0 | 0.01 | 0.33 | 0.20 | 84 | 1021.0 |
| 20260506183042 | 34 | 1 | 6.1 | 8.7 | 0.03 | 0.33 | 0.20 | 84 | 1021.1 |
| 20260506181544 | 34 | 1 | 5.2 | 9.6 | 0.05 | 0.33 | 0.20 | 86 | 1020.9 |
| 20260506180050 | 33 | 1 | 7.0 | 9.6 | 0.05 | 0.32 | 0.19 | 87 | 1020.9 |
| 20260506174545 | 32 | 1 | 7.8 | 11.3 | 0.07 | 0.33 | 0.19 | 88 | 1020.7 |
| 20260506173055 | 32 | 1 | 7.8 | 13.0 | 0.07 | 0.31 | 0.17 | 89 | 1020.7 |
| 20260506171549 | 32 | 1 | 9.6 | 15.6 | 0.06 | 0.29 | 0.15 | 90 | 1020.4 |